Theta_e
338 338 340 339 338 340 341 340 337 339 341 341 341 337 330 333 332 332 333 332 332 335 339 338 338 338 338 334 335 338 336 333 333 338 343 345 346 345 337 334 336 338 335
338 340 342 341 342 342 342 341 339 339 340 341 340 333 332 338 334 334 331 332 330 329 333 340 339 336 335 333 335 339 345 344 342 340 339 343 343 338 335 332 328 328 332
342 342 343 343 343 343 341 341 342 341 341 340 334 332 339 335 335 338 337 329 326 326 327 336 333 334 333 333 337 340 345 346 347 344 340 334 340 334 333 331 334 333 324
343 343 344 344 343 342 340 336 335 335 335 334 336 340 336 332 339 339 332 330 322 332 341 332 329 330 331 335 338 343 345 345 348 347 343 332 333 335 337 324 333 327 324
342 344 343 342 339 333 334 335 336 335 336 335 342 341 332 337 338 337 337 336 324 331 337 329 335 334 334 335 340 343 344 346 346 346 339 335 338 341 338 335 337 325 322
343 341 337 331 333 338 343 337 339 339 340 341 341 336 334 337 335 336 335 335 329 331 333 332 331 328 332 342 346 346 345 345 347 345 341 336 337 339 334 323 325 333 334
343 334 330 331 337 341 340 337 339 340 341 341 341 339 337 332 336 335 336 338 338 338 337 335 334 332 329 344 343 345 343 343 343 344 336 335 336 335 326 321 321 333 336
341 331 334 335 333 337 339 338 341 341 341 341 341 338 337 336 337 338 334 337 339 338 334 333 330 328 331 341 344 343 346 345 342 336 334 334 338 332 323 324 322 320 321
330 331 335 338 339 334 331 330 335 342 341 340 339 338 335 335 335 338 336 333 338 338 336 334 332 329 332 339 344 342 342 343 345 334 333 335 336 334 326 331 337 336 334
329 335 336 336 332 331 333 335 334 337 336 338 338 336 338 340 338 337 337 332 338 339 336 334 332 331 339 342 343 346 344 345 344 336 331 333 333 333 331 338 337 334 330
340 338 340 331 336 338 339 339 339 338 339 339 336 343 344 343 339 338 337 333 336 336 335 334 333 338 338 340 341 344 345 343 343 329 326 326 330 333 333 333 331 331 335
340 340 336 336 339 340 340 337 337 339 343 344 339 339 345 345 344 338 338 334 336 335 334 335 337 338 340 340 342 346 343 343 338 329 329 327 327 329 332 333 331 331 330
343 345 342 345 344 340 338 341 342 341 346 347 345 347 347 347 347 340 339 338 339 342 342 335 339 340 340 341 341 344 345 343 340 326 327 324 323 331 327 327 330 333 326
347 346 343 345 346 344 343 347 344 342 343 344 347 346 341 342 336 343 344 344 344 344 335 340 344 342 342 342 344 343 344 343 342 331 324 328 325 327 328 322 324 328 327
347 346 344 345 344 346 347 347 346 343 345 344 342 344 344 346 344 346 345 343 344 341 340 344 345 343 345 343 343 343 343 343 343 342 330 325 324 325 324 322 322 322 323
346 347 346 346 346 346 350 350 348 347 348 348 345 344 347 346 347 345 341 343 342 339 336 343 343 344 343 344 343 343 343 343 342 343 340 334 336 331 331 330 326 324 324
348 348 347 344 345 345 348 349 348 349 350 346 347 347 345 348 348 345 347 346 344 343 341 342 344 343 342 344 341 339 341 341 340 341 342 345 343 343 337 330 331 334 332
347 347 347 345 340 346 347 347 347 346 350 349 349 347 343 345 347 349 350 345 345 346 343 343 344 340 341 344 342 343 342 340 337 342 343 342 341 343 343 338 330 330 331
345 345 347 346 340 345 346 345 348 348 349 347 345 347 344 344 350 349 348 347 350 347 346 343 342 342 342 342 344 345 343 342 343 343 341 343 342 342 342 344 344 343 342
344 344 346 346 342 345 341 346 349 349 349 347 347 349 343 347 349 350 349 346 346 346 345 345 343 343 342 343 342 342 341 342 342 344 341 343 343 339 342 341 342 345 345
344 344 344 347 345 340 338 348 348 348 347 345 349 351 348 347 348 349 345 347 344 345 344 345 341 344 343 342 342 341 338 339 342 341 342 343 342 343 343 342 342 337 336
343 343 344 347 346 345 338 348 350 348 344 349 350 350 348 341 344 347 343 347 347 345 344 348 342 344 340 340 342 342 341 339 341 341 342 341 342 343 344 344 344 343 334
342 343 344 345 347 345 339 347 347 347 348 350 351 350 347 342 344 349 346 347 348 344 338 340 341 340 340 340 343 344 342 342 340 339 340 340 344 342 345 345 345 345 344
343 342 343 345 346 345 343 337 344 348 346 348 349 350 348 344 344 344 343 345 345 347 348 341 344 345 340 340 339 342 342 343 342 342 343 343 342 341 343 343 342 345 345
345 343 343 343 345 345 343 338 345 346 347 346 347 346 345 345 347 348 348 340 341 344 348 344 342 344 347 342 338 340 342 343 342 342 344 344 344 345 344 345 345 344 343
345 343 342 343 343 345 343 338 344 345 347 348 344 348 348 349 343 349 351 342 339 346 343 350 348 345 346 343 341 340 341 343 344 345 343 344 346 344 344 344 343 344 343
Wind_Speed
26 22 20 19 18 15 11 10 10 10 10 12 12 11 12 12 13 12 12 12 11 12 13 13 14 14 14 14 15 16 16 17 18 18 18 19 20 21 19 17 20 20 20
28 21 18 19 17 14 12 11 11 11 9 10 10 10 11 13 12 12 13 12 11 11 12 12 12 14 15 15 16 17 19 19 20 21 16 20 19 17 15 18 18 19 19
25 21 19 18 16 14 12 12 12 10 8 9 9 10 12 12 13 13 12 12 12 13 13 12 12 14 15 15 16 19 20 19 16 21 15 15 17 17 17 18 19 19 19
25 22 20 18 16 14 12 10 10 9 8 8 9 10 11 12 13 12 13 13 13 17 14 13 15 15 16 17 20 21 19 18 18 15 14 13 18 17 18 18 18 18 19
25 23 21 18 15 14 11 10 9 9 8 9 10 11 12 13 12 12 14 13 15 16 15 15 14 16 18 20 20 18 17 16 18 12 12 13 17 18 16 18 17 17 19
25 23 20 18 15 13 13 11 10 9 10 11 11 12 13 12 13 13 14 15 17 17 17 16 17 18 20 22 20 17 15 15 14 8 10 12 16 16 14 14 15 17 17
23 22 21 18 16 14 13 12 11 12 12 12 12 13 12 12 13 13 14 16 16 15 16 16 17 18 21 20 19 17 17 15 9 8 7 12 15 14 14 14 15 16 15
24 23 21 18 16 15 14 13 13 14 13 13 13 13 13 12 12 12 13 15 15 17 17 17 18 19 23 21 21 18 17 11 9 8 10 12 14 13 14 15 15 15 15
24 23 22 19 18 15 14 13 14 14 13 14 14 13 14 14 13 12 11 13 15 16 16 18 20 20 23 22 18 17 15 11 6 11 10 11 12 13 14 14 13 12 12
25 22 21 18 16 16 16 14 15 14 14 16 16 16 15 15 15 14 12 13 14 15 17 19 20 20 23 21 20 17 13 10 7 9 8 10 11 12 12 12 12 11 10
20 20 19 18 18 16 15 15 15 16 17 18 18 16 14 16 15 13 12 14 15 14 17 19 20 24 23 20 16 13 11 5 7 7 7 8 10 11 11 11 10 9 9
20 17 19 19 17 16 15 16 18 20 18 16 17 17 12 11 12 11 12 16 16 16 16 14 18 22 16 17 16 12 9 8 7 7 6 7 9 10 10 9 8 8 7
19 20 18 16 21 16 18 21 18 17 14 11 11 13 11 10 9 10 15 16 15 16 15 9 12 11 19 15 19 12 15 7 9 8 5 6 8 8 8 7 7 6 6
25 26 20 21 21 17 18 17 16 14 10 7 7 7 11 11 7 7 10 12 9 12 12 9 10 20 20 14 11 9 12 5 8 11 7 6 7 7 6 6 5 5 5
31 32 27 24 21 17 12 13 14 12 11 12 7 7 5 7 9 9 6 6 10 9 9 11 12 13 14 12 11 6 11 5 7 11 11 9 8 7 5 5 4 3 4
27 36 28 24 23 17 9 10 15 11 7 8 4 3 3 8 9 13 10 9 10 8 8 9 11 15 13 12 8 11 10 7 9 10 11 12 12 9 7 6 5 4 3
32 31 28 23 23 23 18 20 15 17 16 11 6 2 5 5 10 6 7 11 17 15 14 12 11 7 10 12 10 8 6 3 3 6 7 10 10 11 12 8 5 4 4
29 29 25 22 25 23 21 21 18 14 10 13 9 2 3 4 9 9 7 9 15 11 11 10 11 10 12 11 10 8 6 6 4 6 6 6 9 9 9 12 7 7 7
28 29 23 19 28 29 26 21 17 14 13 7 5 4 6 7 9 8 7 7 9 9 8 8 12 11 15 12 11 9 4 3 3 1 2 3 4 5 8 9 6 7 7
32 29 22 22 20 30 25 25 16 17 14 10 8 8 6 8 11 10 7 12 10 7 8 14 8 6 6 9 7 7 5 3 3 6 3 3 2 6 5 11 4 7 6
34 32 27 28 23 22 31 28 21 16 16 9 9 8 5 6 9 8 10 11 8 6 11 13 9 6 6 7 7 4 5 4 3 1 5 4 2 6 5 7 13 9 6
37 34 30 29 27 22 29 29 21 15 16 10 9 11 6 3 6 7 12 10 8 9 11 8 8 7 8 5 5 3 4 4 5 4 5 2 2 7 9 6 13 14 13
38 36 34 34 29 26 22 28 22 17 15 13 15 12 9 5 7 7 7 7 6 6 9 8 11 9 10 7 4 6 2 2 7 6 1 6 3 4 7 7 10 11 13
40 37 34 36 32 29 25 28 27 24 22 19 16 15 8 8 8 5 5 7 8 8 6 10 10 5 8 6 6 4 3 7 3 5 5 2 1 3 4 5 8 8 10
42 41 39 36 37 33 29 28 30 28 24 20 18 13 14 8 8 5 2 5 9 10 8 11 8 12 7 8 8 5 6 5 4 3 1 7 6 3 2 2 6 7 11
44 43 42 39 39 38 34 31 32 31 28 21 20 20 18 12 12 13 9 4 6 9 9 9 8 11 9 7 7 7 6 3 5 5 4 10 6 4 3 5 7 10 11
Wind_Direction
156 148 145 144 142 138 136 137 134 119 112 102 98 92 91 95 97 97 96 102 109 113 113 118 122 122 116 117 113 106 98 100 98 97 96 100 97 94 82 96 94 91 92
150 151 148 144 138 130 126 134 145 133 117 111 104 96 96 98 92 93 93 93 103 114 123 121 123 125 120 116 114 105 95 97 91 79 92 95 98 92 88 96 91 98 96
151 155 152 144 141 138 128 125 135 138 127 114 103 98 98 94 95 95 87 91 100 108 113 119 124 128 124 118 115 108 102 92 93 79 75 97 97 96 98 93 98 96 96
156 157 149 143 142 139 137 132 130 130 125 116 106 104 100 99 99 91 92 88 99 106 104 105 108 117 119 119 116 108 107 96 101 97 70 95 101 101 100 93 98 95 95
155 150 143 140 143 140 132 127 125 122 120 115 112 110 103 100 95 96 94 86 94 106 110 106 108 109 116 120 112 110 106 100 109 107 77 96 102 101 100 97 98 98 97
145 144 143 144 140 134 132 129 128 127 122 122 118 110 107 99 99 97 96 94 95 96 98 98 96 104 117 117 111 101 102 106 110 105 93 90 104 106 103 99 104 105 104
148 149 147 145 143 137 133 128 129 130 129 124 120 112 105 97 94 94 96 93 102 104 99 97 100 103 120 121 104 101 109 102 103 97 88 109 105 104 102 103 107 108 108
156 151 147 146 145 139 132 128 128 127 123 120 117 111 101 92 91 92 101 100 104 100 97 93 97 103 124 121 106 101 99 115 90 73 107 108 108 103 105 105 105 107 102
158 151 147 145 142 139 137 137 130 120 119 117 115 105 98 96 96 99 102 108 104 100 96 94 95 102 121 118 114 114 113 113 89 81 102 111 110 106 108 105 103 102 101
153 150 146 144 143 137 135 131 126 120 120 115 112 109 102 95 92 89 97 110 112 109 107 102 100 112 125 123 119 118 111 124 82 57 99 107 110 109 111 110 105 104 99
149 151 144 143 141 136 133 128 123 121 119 119 125 116 104 94 84 78 91 113 114 110 112 110 117 120 121 125 125 112 140 114 84 74 89 108 113 114 113 114 110 109 107
144 144 135 130 130 131 125 121 122 124 120 124 121 92 100 102 86 90 106 114 117 110 110 110 125 110 123 115 113 98 132 133 56 59 85 105 110 116 118 121 116 117 111
148 147 142 132 129 104 129 123 118 128 121 109 105 105 104 119 87 117 113 111 118 119 107 117 129 100 132 113 118 95 146 142 48 48 78 95 105 114 110 116 119 114 104
164 160 149 145 139 125 129 122 116 115 106 128 108 123 119 140 136 137 125 123 125 120 89 120 117 114 110 111 103 104 135 137 49 51 75 91 100 108 108 106 113 113 106
171 173 155 148 139 149 144 130 132 114 118 133 126 131 191 139 103 86 145 163 136 94 124 145 129 119 113 113 106 111 167 131 65 60 66 77 77 77 82 90 104 109 104
165 169 165 161 155 156 163 180 169 148 171 180 165 144 158 123 109 105 130 119 133 126 108 118 122 132 122 115 120 112 128 125 85 69 67 77 71 72 65 56 60 63 64
163 165 167 167 167 164 162 147 147 150 162 190 194 114 10 147 136 132 117 96 98 125 122 113 131 148 133 131 140 150 144 112 190 75 59 67 64 60 59 48 52 40 27
171 172 176 182 177 170 169 159 149 176 162 172 190 233 125 126 131 113 103 84 90 126 119 123 125 125 156 154 149 150 114 94 117 119 90 63 63 55 39 38 58 54 42
184 182 184 194 187 179 178 170 158 165 177 196 189 158 114 126 133 115 104 113 122 120 153 117 138 126 135 147 142 170 135 151 128 147 79 80 33 47 26 25 49 41 40
188 188 183 189 179 187 170 171 166 170 182 176 166 132 92 92 142 129 127 155 130 123 131 140 142 146 134 137 136 157 143 149 129 208 44 42 334 18 353 11 27 1 9
188 192 190 192 196 190 171 173 163 176 191 172 177 158 111 94 160 148 140 158 127 160 149 138 140 135 148 130 172 141 110 130 143 192 202 299 263 357 348 13 15 2 358
187 192 189 193 200 200 176 173 166 175 171 172 187 162 160 157 138 128 146 148 139 145 169 153 172 149 142 120 143 138 162 151 170 170 107 122 238 315 298 330 358 11 14
187 192 191 194 200 204 192 177 170 171 175 194 183 177 178 204 172 175 156 159 182 142 171 159 180 154 143 132 93 73 105 144 152 171 289 222 243 268 318 294 325 338 3
193 194 198 198 200 204 203 187 178 180 180 193 199 194 224 193 186 186 181 164 194 180 162 165 173 161 142 137 132 81 42 115 153 184 223 261 81 153 263 340 310 326 339
197 198 200 206 205 205 206 191 185 187 189 200 195 204 197 180 180 218 275 213 175 190 172 169 177 162 181 163 160 142 141 117 138 348 15 261 251 248 206 251 336 334 345
199 200 201 205 209 210 207 199 193 190 189 195 205 206 192 201 189 206 231 215 179 192 177 185 198 187 181 170 182 178 170 121 20 23 16 23 323 317 327 347 316 332 332